Time,TemperatureF,DewpointF,PressureIn,WindDirection,WindDirectionDegrees,WindSpeedMPH,WindSpeedGustMPH,Humidity,HourlyPrecipIn,Conditions,Clouds,dailyrainin,SoftwareType,DateUTC
2013-01-31 00:00:00,11.4,8.0,29.07,NW,304,10.0,16.0,87,0.00,,,0.00,weatherlink.com 1.10,2013-01-31 05:00:00,
2013-01-31 00:15:00,10.7,7.0,29.08,NNW,328,7.0,18.0,86,0.00,,,0.00,weatherlink.com 1.10,2013-01-31 05:15:00,
2013-01-31 00:30:00,10.6,8.0,29.09,West,271,3.0,17.0,88,0.00,,,0.00,weatherlink.com 1.10,2013-01-31 05:30:00,
2013-01-31 00:45:00,9.9,7.0,29.10,NNW,347,7.0,13.0,86,0.00,,,0.00,weatherlink.com 1.10,2013-01-31 05:45:00,
2013-01-31 01:00:00,9.4,6.0,29.11,North,1,3.0,11.0,85,0.00,,,0.00,weatherlink.com 1.10,2013-01-31 06:00:00,
2013-01-31 01:15:00,8.7,5.0,29.12,NNW,348,11.0,14.0,83,0.00,,,0.00,weatherlink.com 1.10,2013-01-31 06:15:00,
2013-01-31 01:30:00,8.4,4.0,29.13,NNW,333,2.0,13.0,83,0.00,,,0.00,weatherlink.com 1.10,2013-01-31 06:30:00,
2013-01-31 01:45:00,8.0,4.0,29.14,NW,321,6.0,13.0,84,0.00,,,0.00,weatherlink.com 1.10,2013-01-31 06:45:00,
2013-01-31 02:01:00,7.5,4.0,29.14,NW,312,7.0,14.0,85,0.00,,,0.00,weatherlink.com 1.10,2013-01-31 07:01:00,
2013-01-31 02:16:00,6.7,3.0,29.15,NNW,332,6.0,12.0,84,0.00,,,0.00,weatherlink.com 1.10,2013-01-31 07:16:00,
2013-01-31 02:31:00,6.3,2.0,29.17,NNW,336,3.0,16.0,83,0.00,,,0.00,weatherlink.com 1.10,2013-01-31 07:31:00,
2013-01-31 02:46:00,5.7,1.0,29.18,North,355,10.0,17.0,81,0.00,,,0.00,weatherlink.com 1.10,2013-01-31 07:46:00,
2013-01-31 03:01:00,5.4,2.0,29.18,WNW,293,3.0,14.0,84,0.00,,,0.00,weatherlink.com 1.10,2013-01-31 08:01:00,
2013-01-31 03:16:00,4.9,1.0,29.19,NNW,330,3.0,12.0,83,0.00,,,0.00,weatherlink.com 1.10,2013-01-31 08:16:00,
2013-01-31 03:31:00,4.6,1.0,29.19,NNW,332,7.0,10.0,83,0.00,,,0.00,weatherlink.com 1.10,2013-01-31 08:31:00,
2013-01-31 03:46:00,4.3,0.0,29.19,WNW,293,3.0,9.0,83,0.00,,,0.00,weatherlink.com 1.10,2013-01-31 08:46:00,
2013-01-31 04:01:00,3.9,0.0,29.20,WSW,257,4.0,11.0,83,0.00,,,0.00,weatherlink.com 1.10,2013-01-31 09:01:00,
2013-01-31 04:16:00,3.5,-1.0,29.21,NNW,339,7.0,9.0,81,0.00,,,0.00,weatherlink.com 1.10,2013-01-31 09:16:00,
2013-01-31 04:31:00,3.3,-1.0,29.22,NW,319,2.0,10.0,81,0.00,,,0.00,weatherlink.com 1.10,2013-01-31 09:31:00,
2013-01-31 04:46:00,3.3,-1.0,29.23,NW,318,2.0,9.0,82,0.00,,,0.00,weatherlink.com 1.10,2013-01-31 09:46:00,
2013-01-31 05:01:00,3.3,-1.0,29.24,WNW,297,2.0,12.0,82,0.00,,,0.00,weatherlink.com 1.10,2013-01-31 10:01:00,
2013-01-31 05:16:00,3.3,-1.0,29.25,WNW,300,1.0,6.0,83,0.00,,,0.00,weatherlink.com 1.10,2013-01-31 10:16:00,
2013-01-31 05:32:00,3.4,-1.0,29.25,WNW,302,2.0,6.0,83,0.00,,,0.00,weatherlink.com 1.10,2013-01-31 10:32:00,
2013-01-31 05:47:00,3.5,-1.0,29.26,NW,321,3.0,7.0,83,0.00,,,0.00,weatherlink.com 1.10,2013-01-31 10:47:00,
2013-01-31 06:02:00,3.5,-1.0,29.27,NW,314,2.0,10.0,82,0.00,,,0.00,weatherlink.com 1.10,2013-01-31 11:02:00,
2013-01-31 06:17:00,3.4,-1.0,29.28,North,354,8.0,10.0,81,0.00,,,0.00,weatherlink.com 1.10,2013-01-31 11:17:00,
2013-01-31 06:32:00,3.5,-1.0,29.29,NNW,343,6.0,15.0,80,0.00,,,0.00,weatherlink.com 1.10,2013-01-31 11:32:00,
2013-01-31 06:47:00,3.4,-1.0,29.30,North,355,6.0,12.0,80,0.00,,,0.00,weatherlink.com 1.10,2013-01-31 11:47:00,
2013-01-31 07:02:00,3.3,-1.0,29.31,WNW,295,5.0,10.0,82,0.00,,,0.00,weatherlink.com 1.10,2013-01-31 12:02:00,
2013-01-31 07:17:00,3.0,-2.0,29.32,NNW,333,6.0,11.0,79,0.00,,,0.00,weatherlink.com 1.10,2013-01-31 12:17:00,
2013-01-31 07:32:00,2.9,-3.0,29.33,NW,321,4.0,11.0,78,0.00,,,0.00,weatherlink.com 1.10,2013-01-31 12:32:00,
2013-01-31 07:47:00,2.8,-3.0,29.34,North,351,5.0,11.0,77,0.00,,,0.00,weatherlink.com 1.10,2013-01-31 12:47:00,
2013-01-31 08:02:00,2.8,-2.0,29.35,NNW,334,3.0,10.0,80,0.00,,,0.00,weatherlink.com 1.10,2013-01-31 13:02:00,
2013-01-31 08:17:00,2.9,-2.0,29.36,NNW,347,6.0,8.0,80,0.00,,,0.00,weatherlink.com 1.10,2013-01-31 13:17:00,
2013-01-31 08:32:00,3.0,-2.0,29.37,NNW,327,4.0,8.0,81,0.00,,,0.00,weatherlink.com 1.10,2013-01-31 13:32:00,
2013-01-31 08:47:00,3.2,-1.0,29.38,NW,321,1.0,7.0,81,0.00,,,0.00,weatherlink.com 1.10,2013-01-31 13:47:00,
2013-01-31 09:03:00,3.5,-1.0,29.39,NW,318,6.0,8.0,82,0.00,,,0.00,weatherlink.com 1.10,2013-01-31 14:03:00,
2013-01-31 09:18:00,4.0,-1.0,29.40,NW,319,6.0,11.0,79,0.00,,,0.00,weatherlink.com 1.10,2013-01-31 14:18:00,
2013-01-31 09:33:00,4.3,-1.0,29.41,NW,304,5.0,11.0,78,0.00,,,0.00,weatherlink.com 1.10,2013-01-31 14:33:00,
2013-01-31 09:48:00,4.5,-1.0,29.41,North,354,5.0,12.0,77,0.00,,,0.00,weatherlink.com 1.10,2013-01-31 14:48:00,
2013-01-31 10:03:00,4.9,-1.0,29.41,NNW,335,3.0,11.0,77,0.00,,,0.00,weatherlink.com 1.10,2013-01-31 15:03:00,
2013-01-31 10:18:00,5.6,0.0,29.42,WNW,302,2.0,11.0,78,0.00,,,0.00,weatherlink.com 1.10,2013-01-31 15:18:00,
2013-01-31 10:33:00,5.7,0.0,29.42,NNW,330,7.0,12.0,78,0.00,,,0.00,weatherlink.com 1.10,2013-01-31 15:33:00,
2013-01-31 10:48:00,6.1,1.0,29.43,North,359,3.0,7.0,79,0.00,,,0.00,weatherlink.com 1.10,2013-01-31 15:48:00,
2013-01-31 11:03:00,6.9,3.0,29.43,NW,314,2.0,7.0,82,0.00,,,0.00,weatherlink.com 1.10,2013-01-31 16:03:00,
2013-01-31 11:18:00,7.6,3.0,29.44,NNW,327,7.0,9.0,81,0.00,,,0.00,weatherlink.com 1.10,2013-01-31 16:18:00,
2013-01-31 11:33:00,7.7,3.0,29.45,NNE,27,5.0,14.0,81,0.00,,,0.00,weatherlink.com 1.10,2013-01-31 16:33:00,
2013-01-31 11:48:00,8.5,4.0,29.45,NW,309,7.0,12.0,82,0.00,,,0.00,weatherlink.com 1.10,2013-01-31 16:48:00,
2013-01-31 12:03:00,9.2,5.0,29.45,NW,315,1.0,10.0,81,0.00,,,0.00,weatherlink.com 1.10,2013-01-31 17:03:00,
2013-01-31 12:19:00,10.0,5.0,29.46,NW,304,3.0,10.0,81,0.00,,,0.00,weatherlink.com 1.10,2013-01-31 17:19:00,
2013-01-31 12:34:00,10.5,6.0,29.46,WNW,291,4.0,15.0,80,0.00,,,0.00,weatherlink.com 1.10,2013-01-31 17:34:00,
2013-01-31 12:49:00,11.5,6.0,29.47,WNW,302,5.0,11.0,79,0.00,,,0.00,weatherlink.com 1.10,2013-01-31 17:49:00,
2013-01-31 13:04:00,12.2,7.0,29.47,NNW,337,4.0,14.0,79,0.00,,,0.00,weatherlink.com 1.10,2013-01-31 18:04:00,
2013-01-31 13:19:00,13.0,7.0,29.47,NNW,335,5.0,12.0,78,0.00,,,0.00,weatherlink.com 1.10,2013-01-31 18:19:00,
2013-01-31 13:34:00,13.4,8.0,29.47,North,1,6.0,10.0,78,0.00,,,0.00,weatherlink.com 1.10,2013-01-31 18:34:00,
2013-01-31 13:49:00,12.8,7.0,29.48,NW,309,8.0,19.0,79,0.00,,,0.00,weatherlink.com 1.10,2013-01-31 18:49:00,
2013-01-31 14:04:00,12.6,8.0,29.49,NW,321,3.0,13.0,80,0.00,,,0.00,weatherlink.com 1.10,2013-01-31 19:04:00,
2013-01-31 14:19:00,12.2,7.0,29.49,NNW,338,5.0,12.0,80,0.00,,,0.00,weatherlink.com 1.10,2013-01-31 19:19:00,
2013-01-31 14:34:00,12.2,7.0,29.50,NNW,347,3.0,13.0,80,0.00,,,0.00,weatherlink.com 1.10,2013-01-31 19:34:00,
2013-01-31 14:49:00,12.2,7.0,29.50,WNW,290,7.0,13.0,80,0.00,,,0.00,weatherlink.com 1.10,2013-01-31 19:49:00,
2013-01-31 15:04:00,12.5,7.0,29.51,NNW,329,7.0,15.0,80,0.00,,,0.00,weatherlink.com 1.10,2013-01-31 20:04:00,
2013-01-31 15:19:00,12.2,7.0,29.52,NNW,340,10.0,10.0,81,0.00,,,0.00,weatherlink.com 1.10,2013-01-31 20:19:00,
2013-01-31 15:34:00,11.8,7.0,29.53,WNW,302,5.0,10.0,81,0.00,,,0.00,weatherlink.com 1.10,2013-01-31 20:34:00,
2013-01-31 15:50:00,11.3,7.0,29.54,West,271,8.0,13.0,81,0.00,,,0.00,weatherlink.com 1.10,2013-01-31 20:50:00,
2013-01-31 16:05:00,10.7,6.0,29.55,WNW,298,3.0,11.0,81,0.00,,,0.00,weatherlink.com 1.10,2013-01-31 21:05:00,
2013-01-31 16:20:00,10.7,6.0,29.55,NNW,344,3.0,7.0,82,0.00,,,0.00,weatherlink.com 1.10,2013-01-31 21:20:00,
2013-01-31 16:35:00,10.4,6.0,29.56,NW,324,6.0,15.0,81,0.00,,,0.00,weatherlink.com 1.10,2013-01-31 21:35:00,
2013-01-31 16:50:00,10.2,6.0,29.57,West,277,5.0,12.0,82,0.00,,,0.00,weatherlink.com 1.10,2013-01-31 21:50:00,
2013-01-31 17:05:00,10.1,6.0,29.57,NNW,340,2.0,10.0,82,0.00,,,0.00,weatherlink.com 1.10,2013-01-31 22:05:00,
2013-01-31 17:20:00,10.0,6.0,29.59,North,356,2.0,8.0,83,0.00,,,0.00,weatherlink.com 1.10,2013-01-31 22:20:00,
2013-01-31 17:35:00,9.7,6.0,29.59,NNW,343,2.0,6.0,83,0.00,,,0.00,weatherlink.com 1.10,2013-01-31 22:35:00,
2013-01-31 17:50:00,9.4,6.0,29.60,NW,325,1.0,8.0,84,0.00,,,0.00,weatherlink.com 1.10,2013-01-31 22:50:00,
2013-01-31 18:05:00,9.1,5.0,29.61,NW,315,3.0,7.0,84,0.00,,,0.00,weatherlink.com 1.10,2013-01-31 23:05:00,
2013-01-31 18:35:00,8.8,5.0,29.63,NNW,336,2.0,5.0,84,0.00,,,0.00,weatherlink.com 1.10,2013-01-31 23:35:00,
2013-01-31 18:50:00,8.7,4.0,29.63,NW,314,3.0,10.0,82,0.00,,,0.00,weatherlink.com 1.10,2013-01-31 23:50:00,
2013-01-31 19:06:00,8.5,4.0,29.64,WNW,302,1.0,7.0,82,0.00,,,0.00,weatherlink.com 1.10,2013-02-01 00:06:00,
2013-01-31 19:21:00,8.3,4.0,29.64,NNW,330,2.0,8.0,81,0.00,,,0.00,weatherlink.com 1.10,2013-02-01 00:21:00,
2013-01-31 19:36:00,8.1,3.0,29.65,NNW,340,1.0,6.0,80,0.00,,,0.00,weatherlink.com 1.10,2013-02-01 00:36:00,
2013-01-31 19:51:00,7.8,3.0,29.66,NW,326,3.0,9.0,80,0.00,,,0.00,weatherlink.com 1.10,2013-02-01 00:51:00,
2013-01-31 20:06:00,7.6,3.0,29.66,NNW,333,6.0,8.0,80,0.00,,,0.00,weatherlink.com 1.10,2013-02-01 01:06:00,
2013-01-31 20:21:00,7.4,3.0,29.67,North,351,4.0,9.0,80,0.00,,,0.00,weatherlink.com 1.10,2013-02-01 01:21:00,
2013-01-31 20:36:00,7.1,2.0,29.68,NW,314,4.0,9.0,80,0.00,,,0.00,weatherlink.com 1.10,2013-02-01 01:36:00,
2013-01-31 20:51:00,6.7,2.0,29.68,NW,321,3.0,5.0,81,0.00,,,0.00,weatherlink.com 1.10,2013-02-01 01:51:00,
2013-01-31 21:06:00,6.0,1.0,29.69,North,349,7.0,11.0,78,0.00,,,0.00,weatherlink.com 1.10,2013-02-01 02:06:00,
2013-01-31 21:21:00,5.7,0.0,29.70,NW,311,2.0,6.0,78,0.00,,,0.00,weatherlink.com 1.10,2013-02-01 02:21:00,
2013-01-31 21:36:00,5.3,0.0,29.70,WNW,290,5.0,6.0,79,0.00,,,0.00,weatherlink.com 1.10,2013-02-01 02:36:00,
2013-01-31 21:51:00,5.3,0.0,29.71,NNW,337,6.0,8.0,78,0.00,,,0.00,weatherlink.com 1.10,2013-02-01 02:51:00,
2013-01-31 22:06:00,5.2,0.0,29.71,NNW,342,5.0,10.0,78,0.00,,,0.00,weatherlink.com 1.10,2013-02-01 03:06:00,
2013-01-31 22:21:00,5.0,0.0,29.72,NW,326,1.0,7.0,79,0.00,,,0.00,weatherlink.com 1.10,2013-02-01 03:21:00,
2013-01-31 22:37:00,4.8,0.0,29.72,NW,314,1.0,6.0,79,0.00,,,0.00,weatherlink.com 1.10,2013-02-01 03:37:00,
2013-01-31 22:52:00,4.7,-1.0,29.73,NNW,328,1.0,8.0,78,0.00,,,0.00,weatherlink.com 1.10,2013-02-01 03:52:00,
2013-01-31 23:07:00,4.5,-1.0,29.73,WNW,298,3.0,6.0,79,0.00,,,0.00,weatherlink.com 1.10,2013-02-01 04:07:00,
2013-01-31 23:22:00,4.2,0.0,29.73,NW,315,0.0,3.0,81,0.00,,,0.00,weatherlink.com 1.10,2013-02-01 04:22:00,
2013-01-31 23:37:00,3.5,-1.0,29.74,WNW,298,0.0,1.0,83,0.00,,,0.00,weatherlink.com 1.10,2013-02-01 04:37:00,
2013-01-31 23:52:00,2.9,-1.0,29.75,WNW,302,0.0,2.0,83,0.00,,,0.00,weatherlink.com 1.10,2013-02-01 04:52:00,